{"data":{"norad_id":60561,"intl_designator":"2024-149CX","name":"FLOCK 4BE-3","alt_names":[],"object_type":"PAYLOAD","status":"ACTIVE","operator":null,"country":"US","launch_date":"2024-08-16","launch_site_code":"AFWTR","launch_vehicle":null,"mission":null,"orbit_class":"UNKNOWN","rcs_meters":null,"size_class":null,"mass_kg":null,"dimensions":null,"purposes":["earth_obs"],"wikipedia_slug":null,"has_3d_model":false,"image_url":null,"decayed_at":null,"tle_current":{"epoch":"2026-05-25T03:54:13.747968Z","epoch_age_seconds":71285,"freshness":"FRESH","line1":"1 60561U 24149CX  26145.16265912  .00016770  00000+0  41117-3 0  9995","line2":"2 60561  97.3697 228.8674 0004015  33.5344 326.6156 15.40786629 98790","mean_motion":15.40786629,"eccentricity":0.0004015,"inclination_deg":97.3697,"raan_deg":228.8674,"arg_perigee_deg":33.5344,"mean_anomaly_deg":326.6156,"bstar":0.00041117,"rev_number":9879,"period_min":93.458754956524,"perigee_km":441.04742998142,"apogee_km":446.52543449751,"semimajor_km":6821.9234322395,"source":"CELESTRAK","updated_at":"2026-05-25T13:38:13.335111Z"}}}